Location: Nashville
(36.1660°N, 86.7840°W)
Time: 05:21:28
(UTC-05:00)

RS-44 - Visible Passes

Search period start: 22 May 2022 00:00
Search period end: 01 June 2022 00:00
Orbit: 1174 x 1510 km, 82.5° (Epoch: 21 May)

Date Brightness Start Highest point End Pass type
(mag) Time Alt. Az. Time Alt. Az. Time Alt. Az.
22 May ? 00:48:54 38° E 00:48:56 38° E 00:55:31 10° NNE visible
22 May ? 02:41:29 31° W 02:42:20 32° WNW 02:48:47 10° NNW visible
23 May ? 01:12:29 64° E 01:12:29 64° E 01:19:42 10° NNE visible
23 May ? 03:05:04 18° W 03:06:31 19° WNW 03:11:32 10° NNW visible
23 May ? 23:43:28 14° E 23:43:49 14° E 23:47:23 10° NE visible
24 May ? 01:36:03 78° W 01:36:10 78° W 01:43:34 10° N visible
24 May ? 03:29:38 10° WNW 03:30:57 10° WNW 03:32:15 10° NW visible
25 May ? 00:07:02 26° E 00:07:05 26° E 00:12:52 10° NNE visible
25 May ? 01:59:37 47° W 02:00:02 47° WNW 02:07:08 10° N visible
26 May ? 00:30:34 44° E 00:30:34 44° E 00:37:23 10° NNE visible
26 May ? 02:23:09 28° W 02:24:05 29° WNW 02:30:19 10° NNW visible
27 May ? 00:54:06 73° E 00:54:06 73° E 01:01:30 10° N visible
27 May ? 02:46:41 16° W 02:48:20 17° WNW 02:52:52 10° NNW visible
27 May ? 23:25:03 17° E 23:25:21 17° E 23:29:45 10° NE visible
28 May ? 01:17:38 69° W 01:17:49 69° W 01:25:17 10° N visible
28 May ? 23:48:33 30° E 23:48:38 30° E 23:54:52 10° NNE visible
29 May ? 01:41:08 41° W 01:41:44 42° WNW 01:48:46 10° N visible
30 May ? 00:12:03 50° E 00:12:06 50° E 00:19:16 10° NNE visible
30 May ? 02:04:38 24° W 02:05:51 25° WNW 02:11:52 10° NNW visible
30 May ? 22:42:58 10° E 22:43:43 11° ENE 22:45:03 10° ENE visible
31 May ? 00:35:32 82° ESE 00:35:42 83° E 00:43:17 10° N visible
31 May ? 02:28:07 13° W 02:30:11 15° WNW 02:34:08 10° NNW visible
31 May ? 23:06:26 20° E 23:06:52 20° E 23:11:59 10° NE visible
